Starlink 34871

operational
NORAD ID: 65217 Int'l Des: 2025-176 Owner: SPXS Country: US Constellation: starlink
LEOCIRCULAR

About Starlink 34871

Description loading...

Live Position

Loading 3D Globe...

Upcoming Passes

Altitude History

Altitude vs Time

uPlot chart will show altitude changes over time

Two-Line Element Set

1 65217U 25176V 26049.80859814 .00017943 00000-0 61635-3 0 9994
2 65217 53.1576 240.1429 0001124 95.6839 264.4289 15.30206281 30231
Epoch: Feb 18, 2026 • Age: 5 hours

Current Status

Altitude 480.6 km
Velocity 7.63 km/s
Sub-Earth Point 51.81°N, 169.36°W
Launch Date Aug 14, 2025
Age 0.5 years
Type internet

Technical Details

Classification Payload
Mass 575.00 kg
Dry Mass 530.00 kg
Total Mass 575.00 kg
Length 0.30 m
Diameter 4.10 m
Span 29.00 m
Shape Box + pan
Manufacturer SPXS
Bus Type Starlink V2MO
Phase Status In Orbit
Owner/State SPXS/US

Large Constellations

Loading constellations...